ORBCOMM FM113 [+] (41185 NORAD) Tracking and Keplerian Element Data

This shows tracking and keplerian element data for the satellite.

Feedback or suggestion? Click here.




ElementValue
Catalog41185
NameORBCOMM FM113 [+]
Epoch Orbit21832
Epoch Day22.53481959
Epoch Year2020
RAAN115.4119
Inclination47.0018
Eccentricity0.0001097
Argument of Perigee25.9134
Mean Anonmoly334.1805
Mean Motion14.5471537
Decay Rate-1.43E-06
L11 41185U 15081G 20022.53481959 -.00000143 00000-0 52722-5 0 9996
L22 41185 47.0018 115.4119 0001097 25.9134 334.1805 14.54715370218321

Live tracking and technical data element details for ORBCOMM FM113 [+] (NORAD 41185). ORBCOMM FM113 [+] can be tracked NOW for your location showing map with azimuth and elevation plus other details from your city location.

Track the satellite on the map from your city or location and see movement details for azimuth, elevation, latitude, longitude, range, height, and movement on the map or in text.







IsCatalogInMostPopularTable: catalog: 41185, numindb: 363
Update: records affected: 1



GetName: 41185 ORBCOMM FM113 [+]

Hit Count: updated at: Fri, 24 Jan 2020 10:59:08 GMT